{"data":{"norad_id":58849,"epoch":"2026-09-22T22:50:43.022976Z","epoch_age_seconds":40424,"freshness":"FRESH","line1":"1 58849U 24018A   26265.95188684  .00000445  00000+0  74544-4 0  9999","line2":"2 58849  58.6879 247.1372 0425040 220.4817 136.3866 14.39856401139258","mean_motion":14.39856401,"eccentricity":0.042504,"inclination_deg":58.6879,"raan_deg":247.1372,"arg_perigee_deg":220.4817,"mean_anomaly_deg":136.3866,"bstar":7.4544e-5,"rev_number":13925,"period_min":100.00997314732,"perigee_km":455.61722478261,"apogee_km":1062.3286670657,"semimajor_km":7137.1099459242,"source":"CELESTRAK","updated_at":"2026-09-23T09:00:19.015716Z"}}